When you browse on this site, cookies collect data to enhance your experience and personalize the content and advertising you see.
Visit our Privacy Policy to learn more. By continuing to use the site, you agree to this use of cookies and data.
  • In United Kingdom
  • List of Countries
  • For 7 days
  • Water Temperature
  • Weather Map
  • Weather Widgets
  • user-avatar
    Login

    Hourly Weather Elbasan

    Today, 4 June, Thursday

    Time Temperature Precipitation Wind Pressure Humidity
    00:00 +14°C° 0 mm 1 mps 731 mmHg 69%
    01:00 +13°C° 0 mm 1 mps 731 mmHg 65%
    02:00 +13°C° 0 mm 1 mps 731 mmHg 64%
    03:00 +13°C° 0 mm 1 mps 731 mmHg 63%
    04:00 +13°C° 0 mm 2 mps 731 mmHg 62%
    05:00 +15°C° 0 mm 1 mps 731 mmHg 59%
    06:00 +18°C° 0 mm 1 mps 731 mmHg 55%
    07:00 +21°C° 0 mm 1 mps 731 mmHg 52%
    08:00 +22°C° 0 mm 1 mps 732 mmHg 49%
    09:00 +23°C° 0 mm 2 mps 732 mmHg 47%
    10:00 +24°C° 0 mm 2 mps 732 mmHg 45%
    11:00 +25°C° 0 mm 3 mps 732 mmHg 44%
    12:00 +25°C° 0 mm 3 mps 732 mmHg 44%
    13:00 +26°C° 0 mm 3 mps 732 mmHg 43%
    14:00 +26°C° 0 mm 4 mps 732 mmHg 44%
    15:00 +25°C° 0 mm 4 mps 732 mmHg 45%
    16:00 +25°C° 0 mm 4 mps 732 mmHg 46%
    17:00 +22°C° 0 mm 3 mps 732 mmHg 53%
    18:00 +20°C° 0 mm 2 mps 732 mmHg 60%
    19:00 +18°C° 0 mm 2 mps 732 mmHg 67%
    20:00 +17°C° 0 mm 2 mps 732 mmHg 68%
    21:00 +16°C° 0 mm 1 mps 732 mmHg 69%
    22:00 +16°C° 0 mm 1 mps 732 mmHg 70%
    23:00 +16°C° 0 mm 1 mps 732 mmHg 68%

    Tomorrow, 5 June, Friday

    Time Temperature Precipitation Wind Pressure Humidity
    00:00 +15°C° 0 mm 2 mps 732 mmHg 67%
    01:00 +15°C° 0 mm 2 mps 732 mmHg 66%
    02:00 +15°C° 0 mm 2 mps 731 mmHg 64%
    03:00 +15°C° 0 mm 2 mps 731 mmHg 62%
    04:00 +15°C° 0 mm 2 mps 731 mmHg 61%
    05:00 +17°C° 0 mm 2 mps 731 mmHg 58%
    06:00 +19°C° 0 mm 1 mps 732 mmHg 56%
    07:00 +21°C° 0 mm 1 mps 732 mmHg 54%
    08:00 +19°C° 0.2 mm 2 mps 732 mmHg 58%
    09:00 +18°C° 0.2 mm 3 mps 732 mmHg 62%
    10:00 +18°C° 0.2 mm 3 mps 731 mmHg 66%
    11:00 +18°C° 0.4 mm 2 mps 731 mmHg 69%
    12:00 +19°C° 0.4 mm 2 mps 731 mmHg 71%
    13:00 +21°C° 0.4 mm 1 mps 730 mmHg 73%
    14:00 +21°C° 0.2 mm 1 mps 730 mmHg 72%
    15:00 +22°C° 0.2 mm 1 mps 730 mmHg 71%
    16:00 +22°C° 0.2 mm 1 mps 729 mmHg 70%
    17:00 +20°C° 0.2 mm 2 mps 729 mmHg 75%
    18:00 +19°C° 0.2 mm 2 mps 729 mmHg 81%
    19:00 +18°C° 0.2 mm 2 mps 729 mmHg 86%
    20:00 +17°C° 0 mm 2 mps 729 mmHg 84%
    21:00 +18°C° 0 mm 1 mps 729 mmHg 83%
    22:00 +18°C° 0 mm 1 mps 729 mmHg 81%
    23:00 +16°C° 0.5 mm 1 mps 729 mmHg 84%

    Day after tomorrow, 6 June, Saturday

    Time Temperature Precipitation Wind Pressure Humidity
    00:00 +16°C° 0.5 mm 1 mps 729 mmHg 87%
    01:00 +16°C° 0.5 mm 1 mps 728 mmHg 91%
    02:00 +16°C° 0.4 mm 1 mps 728 mmHg 90%
    03:00 +16°C° 0.4 mm 1 mps 728 mmHg 90%
    04:00 +16°C° 0.4 mm 1 mps 728 mmHg 90%
    05:00 +16°C° 0.3 mm 1 mps 728 mmHg 88%
    06:00 +18°C° 0.3 mm 1 mps 729 mmHg 86%
    07:00 +17°C° 0.3 mm 0 mps 729 mmHg 84%
    08:00 +20°C° 0.5 mm 1 mps 729 mmHg 79%
    09:00 +21°C° 0.5 mm 1 mps 730 mmHg 74%
    10:00 +22°C° 0.5 mm 1 mps 730 mmHg 70%
    11:00 +21°C° 0.6 mm 2 mps 730 mmHg 71%
    12:00 +21°C° 0.6 mm 2 mps 730 mmHg 71%
    13:00 +21°C° 0.6 mm 3 mps 730 mmHg 72%
    14:00 +21°C° 0.4 mm 2 mps 730 mmHg 72%
    15:00 +21°C° 0.4 mm 2 mps 730 mmHg 72%
    16:00 +21°C° 0.4 mm 2 mps 730 mmHg 72%
    17:00 +20°C° 0.1 mm 2 mps 730 mmHg 77%
    18:00 +20°C° 0.1 mm 1 mps 730 mmHg 82%
    19:00 +19°C° 0.1 mm 1 mps 730 mmHg 86%
    20:00 +18°C° 0 mm 1 mps 730 mmHg 88%
    21:00 +16°C° 0 mm 1 mps 731 mmHg 90%
    22:00 +16°C° 0 mm 1 mps 731 mmHg 91%
    23:00 +15°C° 0 mm 1 mps 731 mmHg 91%

    7 June, Sunday

    Time Temperature Precipitation Wind Pressure Humidity
    00:00 +15°C° 0 mm 1 mps 731 mmHg 90%
    01:00 +15°C° 0 mm 1 mps 731 mmHg 90%
    02:00 +15°C° 0 mm 1 mps 731 mmHg 89%
    03:00 +15°C° 0 mm 1 mps 731 mmHg 88%
    04:00 +15°C° 0 mm 1 mps 731 mmHg 87%
    05:00 +18°C° 0 mm 1 mps 731 mmHg 82%
    06:00 +19°C° 0 mm 1 mps 731 mmHg 78%
    07:00 +21°C° 0 mm 1 mps 732 mmHg 74%
    08:00 +22°C° 0 mm 1 mps 732 mmHg 70%
    09:00 +23°C° 0 mm 2 mps 732 mmHg 66%
    10:00 +24°C° 0 mm 2 mps 732 mmHg 61%
    11:00 +25°C° 0.1 mm 2 mps 732 mmHg 61%
    12:00 +25°C° 0.1 mm 3 mps 732 mmHg 60%
    13:00 +26°C° 0.1 mm 4 mps 732 mmHg 60%
    14:00 +25°C° 0.2 mm 3 mps 732 mmHg 63%
    15:00 +25°C° 0.2 mm 3 mps 732 mmHg 66%
    16:00 +24°C° 0.2 mm 3 mps 732 mmHg 69%
    17:00 +23°C° 0.1 mm 2 mps 732 mmHg 75%
    18:00 +21°C° 0.1 mm 1 mps 732 mmHg 80%
    19:00 +20°C° 0.1 mm 1 mps 732 mmHg 85%
    20:00 +20°C° 0 mm 1 mps 732 mmHg 85%
    21:00 +19°C° 0 mm 1 mps 732 mmHg 86%
    22:00 +19°C° 0 mm 1 mps 733 mmHg 86%
    23:00 +18°C° 0 mm 1 mps 733 mmHg 85%

    8 June, Monday

    Time Temperature Precipitation Wind Pressure Humidity
    00:00 +18°C° 0 mm 1 mps 732 mmHg 85%
    01:00 +18°C° 0 mm 1 mps 732 mmHg 84%
    02:00 +16°C° 0 mm 1 mps 732 mmHg 83%
    03:00 +16°C° 0 mm 1 mps 732 mmHg 83%
    04:00 +16°C° 0 mm 1 mps 732 mmHg 82%
    05:00 +19°C° 0 mm 1 mps 732 mmHg 76%
    06:00 +21°C° 0 mm 1 mps 732 mmHg 71%
    07:00 +21°C° 0 mm 0 mps 732 mmHg 65%
    08:00 +24°C° 0 mm 1 mps 732 mmHg 63%
    09:00 +25°C° 0 mm 2 mps 732 mmHg 60%
    10:00 +26°C° 0 mm 2 mps 733 mmHg 57%
    11:00 +26°C° 0.2 mm 2 mps 732 mmHg 56%
    12:00 +27°C° 0.2 mm 2 mps 732 mmHg 55%
    13:00 +27°C° 0.2 mm 2 mps 732 mmHg 54%
    14:00 +27°C° 0.2 mm 2 mps 732 mmHg 56%
    15:00 +27°C° 0.2 mm 2 mps 731 mmHg 57%
    16:00 +26°C° 0.2 mm 2 mps 731 mmHg 58%
    17:00 +24°C° 0.1 mm 2 mps 731 mmHg 65%
    18:00 +23°C° 0.1 mm 1 mps 731 mmHg 72%
    19:00 +19°C° 0.1 mm 0 mps 731 mmHg 80%
    20:00 +20°C° 0.1 mm 1 mps 732 mmHg 80%
    21:00 +20°C° 0.1 mm 1 mps 732 mmHg 81%
    22:00 +19°C° 0.1 mm 1 mps 732 mmHg 82%
    23:00 +19°C° 0 mm 1 mps 732 mmHg 81%

    9 June, Tuesday

    Time Temperature Precipitation Wind Pressure Humidity
    00:00 +19°C° 0 mm 1 mps 732 mmHg 80%
    01:00 +19°C° 0 mm 1 mps 732 mmHg 78%
    02:00 +19°C° 0 mm 1 mps 732 mmHg 78%
    03:00 +19°C° 0 mm 1 mps 732 mmHg 77%
    04:00 +18°C° 0 mm 1 mps 731 mmHg 77%
    05:00 +20°C° 0 mm 1 mps 732 mmHg 72%
    06:00 +22°C° 0 mm 1 mps 732 mmHg 68%
    07:00 +24°C° 0 mm 1 mps 733 mmHg 63%
    08:00 +24°C° 0.3 mm 1 mps 733 mmHg 61%
    09:00 +25°C° 0.3 mm 1 mps 733 mmHg 59%
    10:00 +26°C° 0.3 mm 2 mps 733 mmHg 57%
    11:00 +27°C° 0.3 mm 2 mps 732 mmHg 56%
    12:00 +27°C° 0.3 mm 2 mps 732 mmHg 54%
    13:00 +28°C° 0.3 mm 2 mps 732 mmHg 53%
    14:00 +27°C° 1 mm 2 mps 732 mmHg 57%
    15:00 +26°C° 1 mm 3 mps 732 mmHg 62%
    16:00 +26°C° 1 mm 3 mps 732 mmHg 66%
    17:00 +24°C° 0.5 mm 2 mps 732 mmHg 72%
    18:00 +22°C° 0.5 mm 1 mps 732 mmHg 79%
    19:00 +21°C° 0.5 mm 1 mps 732 mmHg 85%
    20:00 +20°C° 0 mm 1 mps 732 mmHg 85%
    21:00 +20°C° 0 mm 1 mps 732 mmHg 84%
    22:00 +19°C° 0 mm 1 mps 733 mmHg 84%
    23:00 +19°C° 0 mm 1 mps 733 mmHg 82%
    Show more